Bogalusa, LA

5:06 AM CDT on May 27, 2017 (GMT -0500)
Carr Memorial

Weather History for KBXA - February, 2013

Change the Weather History Date:

Monday, February 4, 2013

  Actual Average Record
Temperature  
Mean Temperature 48 °F -  
Max Temperature 60 °F 60 °F 71 °F (2014)
Min Temperature 37 °F 37 °F 32 °F (2016)
Degree Days  
Heating Degree Days 16    
Moisture  
Dew Point 42 °F    
Average Humidity 72    
Maximum Humidity 100    
Minimum Humidity 49    
Precipitation  
Precipitation 0.00 in - - ()
Sea Level Pressure  
Sea Level Pressure 30.06 in    
Wind  
Wind Speed 1 mph (SE)    
Max Wind Speed 8 mph    
Max Gust Speed -    
Visibility 10 miles    
Events Rain    
Averages and records for this station are not official NWS values.
T = Trace of Precipitation, MM = Missing Value Source: NWS Daily Summary

Daily Weather History Graph

Daily Weather History Graph

Search for Another Location

Airport or City:

Trip Planner

Search our weather history database for the weather conditions in past years. The results will help you decide how hot, cold, wet, or windy it might be!

Date:

Astronomy

Feb. 04, 2013 Rise Set
Actual Time 6:48 AM CST 5:38 PM CST
Civil Twilight 6:23 AM CST 6:03 PM CST
Nautical Twilight 5:55 AM CST 6:32 PM CST
Astronomical Twilight 5:26 AM CST 7:00 PM CST
Moon 1:19 AM CST (2/4) 12:07 PM CST (2/4)
Length of Visible Light 11h 39m
Length of Day
10h 49m
Last Quarter, 37% of the Moon is Illuminated
Feb 4
Last Quarter
Feb 10
New
Feb 17
First Quarter
Feb 25
Full
Mar 4
Last Quarter

Hourly Weather History & Observations

Time (CST) Temp. Dew Point Humidity Pressure Visibility Wind Dir Wind Speed Gust Speed Precip Events Conditions
12:15 AM 37.8 °F 37.8 °F 100% 30.14 in 10.0 mi Calm Calm - N/A   Unknown
12:35 AM - - N/A% 30.13 in 10.0 mi Calm Calm - N/A   Unknown
12:55 AM - - N/A% 30.13 in 10.0 mi Calm Calm - N/A   Unknown
1:15 AM 38.7 °F 38.7 °F 100% 30.13 in 10.0 mi Calm Calm - N/A   Unknown
1:35 AM 37.6 °F 37.6 °F 100% 30.12 in 10.0 mi Calm Calm - N/A   Unknown
1:55 AM - - N/A% 30.11 in 10.0 mi Calm Calm - N/A   Unknown
2:15 AM 38.7 °F 38.7 °F 100% 30.11 in 10.0 mi Calm Calm - N/A   Unknown
2:35 AM 37.8 °F 37.8 °F 100% 30.11 in 10.0 mi Calm Calm - N/A   Unknown
2:55 AM 38.5 °F 38.5 °F 100% 30.11 in 10.0 mi Calm Calm - N/A   Unknown
3:15 AM 39.2 °F 39.2 °F 100% 30.13 in 10.0 mi Calm Calm - N/A   Unknown
3:35 AM 39.6 °F 39.6 °F 100% 30.12 in 10.0 mi Calm Calm - N/A   Unknown
5:15 AM 38.7 °F 38.7 °F 100% 30.10 in 10.0 mi Calm Calm - N/A   Unknown
5:35 AM - - N/A% 30.11 in 10.0 mi Calm Calm - N/A   Unknown
5:55 AM - - N/A% 30.10 in 10.0 mi Calm Calm - N/A   Unknown
6:15 AM - - N/A% 30.11 in 10.0 mi Calm Calm - N/A   Unknown
6:35 AM - - N/A% 30.10 in 10.0 mi Calm Calm - N/A   Unknown
7:15 AM - - N/A% 30.12 in 10.0 mi North 4.6 mph - N/A   Unknown
7:55 AM 41.4 °F 41.4 °F 100% 30.12 in 10.0 mi Calm Calm - N/A   Unknown
8:15 AM 42.8 °F 38.5 °F 85% 30.13 in 10.0 mi Calm Calm - N/A   Unknown
8:35 AM 43.2 °F 37.9 °F 82% 30.13 in 10.0 mi Calm Calm - N/A   Unknown
8:55 AM 44.1 °F 38.5 °F 81% 30.12 in 10.0 mi Calm Calm - N/A   Unknown
9:15 AM 45.3 °F 37.9 °F 75% 30.13 in 10.0 mi Calm Calm - N/A   Unknown
9:35 AM 45.7 °F 38.7 °F 76% 30.13 in 10.0 mi Calm Calm - N/A   Unknown
9:55 AM 46.8 °F 38.7 °F 73% 30.13 in 10.0 mi Calm Calm - N/A   Unknown
10:15 AM 49.3 °F 38.1 °F 65% 30.13 in 10.0 mi Calm Calm - N/A   Unknown
10:35 AM 51.1 °F 37.0 °F 59% 30.12 in 10.0 mi Calm Calm - N/A   Unknown
11:15 AM 54.0 °F 38.1 °F 55% 30.11 in 10.0 mi Calm Calm - N/A   Unknown
11:35 AM 55.6 °F 38.1 °F 52% 30.11 in 10.0 mi Calm Calm - N/A   Unknown
11:55 AM 56.5 °F 38.7 °F 51% 30.09 in 10.0 mi Calm Calm - N/A   Unknown
12:15 PM 57.4 °F 38.8 °F 50% 30.09 in 10.0 mi Calm Calm - N/A   Unknown
12:35 PM 58.1 °F 39.2 °F 49% 30.08 in 10.0 mi Calm Calm - N/A   Unknown
12:55 PM 58.1 °F 39.9 °F 51% 30.07 in 10.0 mi Calm Calm - N/A   Unknown
1:15 PM 58.1 °F 39.9 °F 51% 30.05 in 10.0 mi Calm Calm - N/A   Unknown
1:35 PM 58.3 °F 40.1 °F 51% 30.05 in 10.0 mi Calm Calm - N/A   Unknown
1:55 PM 59.2 °F 41.0 °F 51% 30.04 in 10.0 mi Calm Calm - N/A   Unknown
2:15 PM 59.7 °F 40.8 °F 50% 30.03 in 10.0 mi SSE 3.5 mph - N/A   Unknown
2:55 PM 60.4 °F 41.4 °F 49% 30.02 in 10.0 mi East 3.5 mph - N/A   Unknown
3:15 PM 60.3 °F 41.4 °F 50% 30.02 in 10.0 mi SE 3.5 mph - N/A   Unknown
3:35 PM 60.8 °F 41.9 °F 50% 30.02 in 10.0 mi East 4.6 mph - N/A   Unknown
3:55 PM 60.4 °F 42.6 °F 52% 30.02 in 10.0 mi ESE 3.5 mph - N/A   Unknown
4:15 PM 59.9 °F 42.8 °F 53% 30.00 in 10.0 mi Calm Calm - N/A   Unknown
4:35 PM 59.4 °F 44.6 °F 58% 30.01 in 10.0 mi Calm Calm - N/A Rain Rain
4:55 PM 57.4 °F 46.0 °F 66% 29.98 in 10.0 mi ESE 5.8 mph - N/A   Light Drizzle
5:15 PM 57.2 °F 45.1 °F 64% 29.98 in 10.0 mi SSW 4.6 mph - N/A   Unknown
5:35 PM 56.7 °F 47.3 °F 71% 30.01 in 10.0 mi Calm Calm - N/A   Unknown
5:55 PM 57.7 °F 45.0 °F 62% 30.00 in 10.0 mi South 4.6 mph - N/A   Unknown
6:15 PM 57.2 °F 44.6 °F 63% 30.00 in 10.0 mi SSE 6.9 mph - N/A   Unknown
6:55 PM 56.8 °F 43.9 °F 62% 30.00 in 10.0 mi SSE 5.8 mph - N/A Rain Light Rain
7:15 PM 56.5 °F 44.1 °F 63% 30.01 in 10.0 mi South 5.8 mph - N/A   Unknown
7:35 PM 56.3 °F 43.7 °F 63% 30.00 in 10.0 mi SSE 5.8 mph - N/A   Unknown
7:55 PM 56.3 °F 43.3 °F 62% 30.01 in 10.0 mi South 5.8 mph - N/A   Unknown
8:15 PM 55.9 °F 44.2 °F 65% 30.00 in 10.0 mi SSE 5.8 mph - N/A   Unknown
8:35 PM 55.6 °F 45.5 °F 69% 30.01 in 10.0 mi SSE 5.8 mph - N/A   Unknown
8:55 PM 55.6 °F 47.7 °F 75% 30.01 in 10.0 mi SE 4.6 mph - N/A   Unknown
9:15 PM 55.4 °F 48.9 °F 79% 30.01 in 10.0 mi SSE 5.8 mph - N/A   Unknown
9:35 PM 55.4 °F 50.0 °F 82% 30.00 in 10.0 mi SSE 8.1 mph - N/A   Unknown
9:55 PM 54.9 °F 54.9 °F 100% 30.00 in 10.0 mi SE 3.5 mph - N/A Rain Light Rain
10:15 PM 54.7 °F 54.7 °F 100% 30.00 in 10.0 mi Calm Calm - N/A   Unknown
10:35 PM 54.5 °F 54.5 °F 100% 29.99 in 10.0 mi Calm Calm - N/A   Unknown
10:55 PM - - N/A% 29.99 in 10.0 mi Calm Calm - N/A   Unknown
11:15 PM - - N/A% 29.98 in 10.0 mi Calm Calm - N/A   Unknown
11:55 PM - - N/A% 29.98 in 10.0 mi Calm Calm - N/A   Unknown